{"data":{"norad_id":58457,"intl_designator":"2023-183W","name":"STARLINK-30958","alt_names":[],"object_type":"PAYLOAD","status":"ACTIVE","operator":null,"country":"US","launch_date":"2023-11-28","launch_site_code":"AFETR","launch_vehicle":null,"mission":null,"orbit_class":"UNKNOWN","rcs_meters":null,"size_class":null,"mass_kg":null,"dimensions":null,"purposes":["comms"],"wikipedia_slug":null,"has_3d_model":false,"image_url":null,"decayed_at":null,"tle_current":{"epoch":"2026-05-24T21:36:05.994432Z","epoch_age_seconds":83712,"freshness":"FRESH","line1":"1 58457U 23183W   26144.90006938 -.00000013  00000+0  90503-5 0  9994","line2":"2 58457  43.0032 330.8871 0001297 269.7950  90.2753 15.27572346138392","mean_motion":15.27572346,"eccentricity":0.0001297,"inclination_deg":43.0032,"raan_deg":330.8871,"arg_perigee_deg":269.795,"mean_anomaly_deg":90.2753,"bstar":9.0503e-6,"rev_number":13839,"period_min":94.267221043291,"perigee_km":482.18211615562,"apogee_km":483.9619137741,"semimajor_km":6861.2090149649,"source":"CELESTRAK","updated_at":"2026-05-25T13:38:18.625930Z"}}}